This demonstration page uses our WeatherBlox Daily Observations layout. Learn more.

Left ArrowRight Arrow

Hourly Observations for November 19, 2022

Temp ( °F °C ) Dew Point ( °F °C ) Humidity (%) Winds ( mph kmh ) Pressure ( in mb ) Visibility ( mi km ) Precip ( " mm )
12:15 am 00:15 Clear 32 0 23 -5 69 69 NNW 7 11 30.29 1026 10 16 0.00 0.00
12:35 am 00:35 Clear 32 0 23 -5 69 69 NNW 7 11 30.29 1026 10 16 0.00 0.00
12:55 am 00:55 Clear 32 0 21 -6 64 64 Calm 30.29 1026 10 16 0.00 0.00
1:15 am 01:15 Clear 32 0 21 -6 64 64 NW 7 11 30.28 1025 10 16 0.00 0.00
1:35 am 01:35 Clear 32 0 21 -6 64 64 Calm 30.29 1026 10 16 0.00 0.00
1:55 am 01:55 Clear 32 0 21 -6 64 64 Calm 30.29 1026 10 16 0.00 0.00
2:15 am 02:15 Clear 30 -1 21 -6 69 69 WNW 3 6 30.29 1026 10 16 0.00 0.00
2:35 am 02:35 Clear 30 -1 23 -5 74 74 Calm 30.30 1026 10 16 0.00 0.00
2:55 am 02:55 Clear 30 -1 21 -6 69 69 Calm 30.30 1026 10 16 0.00 0.00
3:15 am 03:15 Clear 30 -1 23 -5 74 74 NW 5 7 30.30 1026 10 16 0.00 0.00
3:35 am 03:35 Clear 30 -1 21 -6 69 69 NW 5 7 30.29 1026 10 16 0.00 0.00
3:55 am 03:55 Clear 30 -1 21 -6 69 69 NW 3 6 30.29 1026 10 16 0.00 0.00
4:15 am 04:15 Clear 30 -1 21 -6 69 69 Calm 30.29 1026 10 16 0.00 0.00
4:35 am 04:35 Clear 28 -2 21 -6 74 74 Calm 30.29 1026 10 16 0.00 0.00
4:55 am 04:55 Clear 28 -2 23 -5 80 80 Calm 30.29 1026 10 16 0.00 0.00
5:15 am 05:15 Clear 27 -3 23 -5 86 86 Calm 30.31 1026 10 16 0.00 0.00
5:35 am 05:35 Clear 27 -3 23 -5 86 86 WNW 3 6 30.31 1026 10 16 0.00 0.00
5:55 am 05:55 Clear 27 -3 23 -5 86 86 WNW 3 6 30.31 1026 10 16 0.00 0.00
6:15 am 06:15 Clear 27 -3 23 -5 86 86 Calm 30.32 1027 10 16 0.00 0.00
6:35 am 06:35 Clear 28 -2 23 -5 80 80 Calm 30.31 1027 10 16 0.00 0.00
6:55 am 06:55 Clear 28 -2 23 -5 80 80 Calm 30.31 1027 10 16 0.00 0.00
7:15 am 07:15 Sunny 28 -2 21 -6 74 74 Calm 30.33 1027 10 16 0.00 0.00
7:35 am 07:35 Sunny 27 -3 23 -5 86 86 SSW 7 11 30.33 1027 10 16 0.00 0.00
7:55 am 07:55 Sunny 28 -2 23 -5 80 80 SSW 6 9 30.33 1027 10 16 0.00 0.00
8:15 am 08:15 Sunny 28 -2 23 -5 80 80 SSW 8 13 30.34 1027 10 16 0.00 0.00
8:35 am 08:35 Sunny 30 -1 25 -4 80 80 SSW 6 9 30.33 1027 10 16 0.00 0.00
8:55 am 08:55 Sunny 30 -1 25 -4 80 80 WSW 3 6 30.33 1027 10 16 0.00 0.00
9:15 am 09:15 Sunny 32 0 25 -4 74 74 SSW 3 6 30.33 1027 10 16 0.00 0.00
9:35 am 09:35 Sunny 34 1 27 -3 75 75 SSW 5 7 30.32 1027 10 16 0.00 0.00
9:55 am 09:55 Sunny 34 1 25 -4 69 69 SSW 7 11 30.31 1026 10 16 0.00 0.00
10:15 am 10:15 Sunny 36 2 27 -3 69 69 S 3 6 30.31 1026 10 16 0.00 0.00
10:35 am 10:35 Sunny 37 3 27 -3 65 65 S 5 7 30.30 1026 10 16 0.00 0.00
10:55 am 10:55 Sunny 39 4 23 -5 52 52 SSW 6 9 30.30 1026 10 16 0.00 0.00
11:15 am 11:15 Sunny 39 4 23 -5 52 52 S 9 15 30.28 1025 10 16 0.00 0.00
11:35 am 11:35 Sunny 41 5 23 -5 48 48 W 5 7 30.27 1025 10 16 0.00 0.00
11:55 am 11:55 Sunny 41 5 21 -6 45 45 WSW 10 17 30.24 1024 10 16 0.00 0.00
12:15 pm 12:15 Sunny 43 6 21 -6 42 42 SW 12 19 30.23 1024 10 16 0.00 0.00
12:35 pm 12:35 Sunny 43 6 21 -6 42 42 SSW 8 13 30.22 1023 10 16 0.00 0.00
12:55 pm 12:55 Sunny 43 6 21 -6 42 42 SSW 10 17 30.21 1023 10 16 0.00 0.00
1:15 pm 13:15 Sunny 43 6 21 -6 42 42 WSW 6 9 30.19 1022 10 16 0.00 0.00
1:35 pm 13:35 Sunny 43 6 21 -6 42 42 WSW 9 15 30.19 1022 10 16 0.00 0.00
1:55 pm 13:55 Sunny 43 6 21 -6 42 42 WSW 8 13 30.18 1022 10 16 0.00 0.00
2:15 pm 14:15 Sunny 43 6 21 -6 42 42 WSW 8 13 30.17 1022 10 16 0.00 0.00
2:35 pm 14:35 Sunny 45 7 21 -6 39 39 SW 10 17 30.16 1021 10 16 0.00 0.00
2:55 pm 14:55 Sunny 45 7 21 -6 39 39 WSW 7 11 30.15 1021 10 16 0.00 0.00
3:15 pm 15:15 Sunny 45 7 21 -6 39 39 S 9 15 30.14 1021 10 16 0.00 0.00
3:35 pm 15:35 Sunny 45 7 21 -6 39 39 SW 8 13 30.13 1020 10 16 0.00 0.00
3:55 pm 15:55 Sunny 45 7 21 -6 39 39 WSW 9 15 30.12 1020 10 16 0.00 0.00
4:15 pm 16:15 Sunny 43 6 21 -6 42 42 SSW 8 13 30.12 1020 10 16 0.00 0.00
4:35 pm 16:35 Sunny 43 6 19 -7 39 39 SW 6 9 30.12 1020 10 16 0.00 0.00
4:55 pm 16:55 Clear 41 5 19 -7 41 41 SSW 3 6 30.11 1020 10 16 0.00 0.00
5:15 pm 17:15 Clear 43 6 19 -7 39 39 S 3 6 30.11 1020 10 16 0.00 0.00
6:15 pm 18:15 Clear 39 4 21 -6 48 48 Calm 30.10 1019 10 16 0.00 0.00
6:35 pm 18:35 Clear 36 2 23 -5 60 60 SSW 3 6 30.12 1020 7 11 0.00 0.00
6:55 pm 18:55 Clear 34 1 23 -5 64 64 SSW 3 6 30.12 1020 10 16 0.00 0.00
7:15 pm 19:15 Clear 32 0 23 -5 69 69 WSW 3 6 30.11 1020 10 16 0.00 0.00
7:35 pm 19:35 Clear 34 1 23 -5 64 64 SW 5 7 30.11 1020 10 16 0.00 0.00
7:55 pm 19:55 Clear 32 0 23 -5 69 69 WSW 5 7 30.11 1020 10 16 0.00 0.00
8:15 pm 20:15 Clear 32 0 23 -5 69 69 SSW 6 9 30.10 1019 10 16 0.00 0.00
8:35 pm 20:35 Clear 32 0 23 -5 69 69 SW 6 9 30.10 1019 10 16 0.00 0.00
8:55 pm 20:55 Clear 32 0 23 -5 69 69 WSW 3 6 30.10 1019 10 16 0.00 0.00
9:15 pm 21:15 Clear 32 0 27 -3 80 80 Calm 30.10 1019 10 16 0.00 0.00
9:35 pm 21:35 Clear 32 0 23 -5 69 69 Calm 30.09 1019 10 16 0.00 0.00
9:55 pm 21:55 Clear 32 0 23 -5 69 69 Calm 30.09 1019 10 16 0.00 0.00
10:15 pm 22:15 Clear 32 0 23 -5 69 69 Calm 30.08 1019 10 16 0.00 0.00
10:35 pm 22:35 Clear 32 0 23 -5 69 69 Calm 30.08 1019 10 16 0.00 0.00
10:55 pm 22:55 Clear 32 0 23 -5 69 69 SSW 5 7 30.08 1019 10 16 0.00 0.00
11:15 pm 23:15 Clear 32 0 23 -5 69 69 Calm 30.08 1019 10 16 0.00 0.00
11:35 pm 23:35 Clear 32 0 21 -6 64 64 Calm 30.07 1018 10 16 0.00 0.00
11:55 pm 23:55 Clear 32 0 21 -6 64 64 Calm 30.07 1018 10 16 0.00 0.00

Powered by AerisWeather